Volver al catálogo

STARLINK-33781

ActivoComunicacionesVLEO
NORAD 63826·PAYLOAD·🇺🇸 United States

Lanzado May 4, 2025 desde Cape Canaveral Space Force Station

Loading…

Próximos Pases (próximas 24 horas)

TLE

ActualizadoSource: CelesTrak SupGP

Época: Sep 14, 2026, 22:57 UTC

1 63826C 25092Y   26257.95673611 -.00029883  00000+0 -10823-2 0  2577
2 63826  43.0011 183.9692 0001324 266.7826 215.9634 15.27596026    15

Sigue STARLINK-33781 en tiempo real con AllMySat

Download on the App Store